Location: York
(31.8935°S, 116.7682°E)
Time: 17:41:00
(UTC+08:00)

deb Explorer IX - Pass Details

Date: 29 September 2022
Orbit: 533 x 1057 km, 38.8° (Epoch: 30 November)

Event Time Altitude Azimuth Distance (km) Brightness Sun altitude
Rises 21:06:15 0° 270° (W) 3,294 ? -35.7°
Reaches altitude 10° 21:09:01 10° 263° (W) 2,272 ? -36.3°
Enters shadow 21:11:21 23° 250° (WSW) 1,479 ? -36.7°
Maximum altitude 21:14:00 42° 192° (SSW) 962 - -37.1°
Drops below altitude 10° 21:18:21 10° 121° (ESE) 1,979 - -37.9°
Sets 21:20:38 0° 113° (ESE) 2,822 - -38.3°
